contact:dominique.lefevre@mio.osupytheas.fr, maurice.libes@osupytheas.fr, didier.mallarino@osupytheas.fr
Project:EMSO http://www.emso-fr.org/EMSO-France
Depth: 2436.0 m
Title:EMSO Ligure Ouest : Data MII capteur CSTAR
DateTime,Latitude,Longitude,Instrument_Serial,Reference_Counts,Signal_Counts,Corrected_Signal_raw_counts,Calculated_Beam_c_inverse_meters,Internal_thermistor_counts
DateTime,Latitude,Longitude,Instrument_Serial,Reference_Counts,Signal_Counts,Corrected_Signal_raw_counts,Calculated_Beam_c_inverse_meters,Internal_thermistor_counts
2020-01-11T00:01:38,42.805,6.029,CST-1368DR,6986,9793,15264,0.091,551
2020-01-11T00:04:39,42.805,6.029,CST-1368DR,6986,9794,15266,0.091,551
2020-01-11T00:07:41,42.805,6.029,CST-1368DR,6986,9793,15265,0.091,551
2020-01-11T00:10:43,42.805,6.029,CST-1368DR,6986,9793,15265,0.091,551
2020-01-11T00:13:44,42.805,6.029,CST-1368DR,6986,9795,15267,0.090,551
2020-01-11T00:16:46,42.805,6.029,CST-1368DR,6986,9795,15267,0.090,551
2020-01-11T00:19:48,42.805,6.029,CST-1368DR,6986,9793,15264,0.091,551
2020-01-11T00:22:50,42.805,6.029,CST-1368DR,6986,9793,15264,0.091,551
2020-01-11T00:25:51,42.805,6.029,CST-1368DR,6986,9794,15266,0.091,551
2020-01-11T00:28:53,42.805,6.029,CST-1368DR,6986,9793,15264,0.091,551
2020-01-11T00:31:55,42.805,6.029,CST-1368DR,6986,9793,15265,0.091,551
2020-01-11T00:34:56,42.805,6.029,CST-1368DR,6986,9793,15264,0.091,551
2020-01-11T00:37:58,42.805,6.029,CST-1368DR,6986,9794,15266,0.091,551
2020-01-11T00:41:00,42.805,6.029,CST-1368DR,6986,9793,15264,0.091,551
2020-01-11T00:44:01,42.805,6.029,CST-1368DR,6986,9792,15263,0.091,551
2020-01-11T00:47:03,42.805,6.029,CST-1368DR,6986,9792,15264,0.091,551
2020-01-11T00:50:05,42.805,6.029,CST-1368DR,6986,9792,15263,0.091,551
2020-01-11T00:53:06,42.805,6.029,CST-1368DR,6986,9791,15262,0.092,551
2020-01-11T00:56:08,42.805,6.029,CST-1368DR,6986,9791,15262,0.092,551
2020-01-11T00:59:10,42.805,6.029,CST-1368DR,6986,9793,15264,0.091,550
2020-01-11T01:02:11,42.805,6.029,CST-1368DR,6986,9793,15264,0.091,551
2020-01-11T01:05:13,42.805,6.029,CST-1368DR,6986,9793,15264,0.091,551
2020-01-11T01:08:15,42.805,6.029,CST-1368DR,6986,9789,15258,0.093,551
2020-01-11T01:11:16,42.805,6.029,CST-1368DR,6986,9791,15262,0.092,551
2020-01-11T01:14:18,42.805,6.029,CST-1368DR,6986,9792,15264,0.091,551
2020-01-11T01:17:20,42.805,6.029,CST-1368DR,6986,9793,15265,0.091,551
2020-01-11T01:20:21,42.805,6.029,CST-1368DR,6986,9790,15259,0.093,551
2020-01-11T01:23:23,42.805,6.029,CST-1368DR,6986,9791,15261,0.092,551
2020-01-11T01:26:25,42.805,6.029,CST-1368DR,6986,9792,15263,0.091,551
2020-01-11T01:29:26,42.805,6.029,CST-1368DR,6986,9793,15265,0.091,551
2020-01-11T01:32:28,42.805,6.029,CST-1368DR,6986,9792,15264,0.091,550
2020-01-11T01:35:29,42.805,6.029,CST-1368DR,6986,9793,15265,0.091,551
2020-01-11T01:38:31,42.805,6.029,CST-1368DR,6986,9793,15265,0.091,551
2020-01-11T01:41:33,42.805,6.029,CST-1368DR,6986,9793,15264,0.091,551
2020-01-11T01:44:34,42.805,6.029,CST-1368DR,6986,9793,15265,0.091,551
2020-01-11T01:47:36,42.805,6.029,CST-1368DR,6986,9792,15263,0.091,551
2020-01-11T01:50:38,42.805,6.029,CST-1368DR,6986,9791,15262,0.092,551
2020-01-11T01:53:39,42.805,6.029,CST-1368DR,6986,9793,15265,0.091,551
2020-01-11T01:56:41,42.805,6.029,CST-1368DR,6986,9793,15264,0.091,551
2020-01-11T01:59:43,42.805,6.029,CST-1368DR,6986,9792,15264,0.091,551
2020-01-11T02:02:44,42.805,6.029,CST-1368DR,6986,9793,15265,0.091,551
2020-01-11T02:05:46,42.805,6.029,CST-1368DR,6986,9791,15261,0.092,551
2020-01-11T02:08:48,42.805,6.029,CST-1368DR,6986,9794,15266,0.091,551
2020-01-11T02:11:49,42.805,6.029,CST-1368DR,6986,9794,15267,0.090,550
2020-01-11T02:14:51,42.805,6.029,CST-1368DR,6986,9791,15261,0.092,551
2020-01-11T02:17:53,42.805,6.029,CST-1368DR,6986,9793,15265,0.091,551
2020-01-11T02:20:54,42.805,6.029,CST-1368DR,6986,9792,15263,0.091,551
2020-01-11T02:23:56,42.805,6.029,CST-1368DR,6986,9791,15262,0.092,551
2020-01-11T02:26:58,42.805,6.029,CST-1368DR,6985,9791,15263,0.091,551
2020-01-11T02:29:59,42.805,6.029,CST-1368DR,6986,9792,15264,0.091,551
2020-01-11T02:33:01,42.805,6.029,CST-1368DR,6986,9793,15264,0.091,550
2020-01-11T02:36:03,42.805,6.029,CST-1368DR,6985,9788,15258,0.093,551
2020-01-11T02:39:04,42.805,6.029,CST-1368DR,6985,9783,15252,0.094,551
2020-01-11T02:42:06,42.805,6.029,CST-1368DR,6986,9793,15265,0.091,551
2020-01-11T02:45:08,42.805,6.029,CST-1368DR,6986,9791,15261,0.092,551
2020-01-11T02:48:09,42.805,6.029,CST-1368DR,6986,9792,15263,0.091,551
2020-01-11T02:51:11,42.805,6.029,CST-1368DR,6985,9793,15266,0.091,551
2020-01-11T02:54:13,42.805,6.029,CST-1368DR,6986,9793,15264,0.091,551
2020-01-11T02:57:15,42.805,6.029,CST-1368DR,6985,9793,15267,0.090,550
2020-01-11T03:00:17,42.805,6.029,CST-1368DR,6985,9784,15253,0.094,551
2020-01-11T03:03:18,42.805,6.029,CST-1368DR,6985,9789,15261,0.092,551
2020-01-11T03:06:20,42.805,6.029,CST-1368DR,6986,9791,15262,0.092,551
2020-01-11T03:09:22,42.805,6.029,CST-1368DR,6986,9792,15264,0.091,550
2020-01-11T03:12:23,42.805,6.029,CST-1368DR,6985,9792,15265,0.091,551
2020-01-11T03:15:25,42.805,6.029,CST-1368DR,6985,9793,15267,0.090,551
2020-01-11T03:18:27,42.805,6.029,CST-1368DR,6985,9793,15267,0.090,551
2020-01-11T03:21:28,42.805,6.029,CST-1368DR,6985,9794,15268,0.090,551
2020-01-11T03:24:30,42.805,6.029,CST-1368DR,6985,9792,15265,0.091,551
2020-01-11T03:27:32,42.805,6.029,CST-1368DR,6985,9791,15264,0.091,551
2020-01-11T03:30:33,42.805,6.029,CST-1368DR,6985,9794,15268,0.090,551
2020-01-11T03:33:35,42.805,6.029,CST-1368DR,6985,9792,15265,0.091,551
2020-01-11T03:36:37,42.805,6.029,CST-1368DR,6985,9793,15267,0.090,551
2020-01-11T03:39:38,42.805,6.029,CST-1368DR,6985,9793,15266,0.091,551
2020-01-11T03:42:40,42.805,6.029,CST-1368DR,6985,9792,15266,0.091,551
2020-01-11T03:45:42,42.805,6.029,CST-1368DR,6985,9792,15265,0.091,551
2020-01-11T03:48:43,42.805,6.029,CST-1368DR,6985,9792,15266,0.091,551
2020-01-11T03:51:45,42.805,6.029,CST-1368DR,6985,9790,15261,0.092,550
2020-01-11T03:54:46,42.805,6.029,CST-1368DR,6985,9792,15265,0.091,551
2020-01-11T03:57:48,42.805,6.029,CST-1368DR,6985,9791,15264,0.091,551
2020-01-11T04:00:50,42.805,6.029,CST-1368DR,6985,9792,15265,0.091,551
2020-01-11T04:03:51,42.805,6.029,CST-1368DR,6985,9792,15265,0.091,551
2020-01-11T04:06:53,42.805,6.029,CST-1368DR,6985,9793,15266,0.091,551
2020-01-11T04:09:55,42.805,6.029,CST-1368DR,6985,9792,15265,0.091,551
2020-01-11T04:12:56,42.805,6.029,CST-1368DR,6985,9791,15263,0.091,551
2020-01-11T04:15:58,42.805,6.029,CST-1368DR,6985,9789,15260,0.092,551
2020-01-11T04:19:00,42.805,6.029,CST-1368DR,6985,9792,15265,0.091,551
2020-01-11T04:22:02,42.805,6.029,CST-1368DR,6985,9792,15265,0.091,551
2020-01-11T04:25:03,42.805,6.029,CST-1368DR,6985,9792,15265,0.091,551
2020-01-11T04:28:05,42.805,6.029,CST-1368DR,6985,9791,15264,0.091,551
2020-01-11T04:31:07,42.805,6.029,CST-1368DR,6985,9792,15266,0.091,551
2020-01-11T04:34:08,42.805,6.029,CST-1368DR,6985,9792,15266,0.091,551
2020-01-11T04:37:10,42.805,6.029,CST-1368DR,6985,9792,15265,0.091,551
2020-01-11T04:40:12,42.805,6.029,CST-1368DR,6985,9792,15265,0.091,551
2020-01-11T04:43:14,42.805,6.029,CST-1368DR,6985,9792,15265,0.091,551
2020-01-11T04:46:16,42.805,6.029,CST-1368DR,6985,9789,15260,0.092,551
2020-01-11T04:49:17,42.805,6.029,CST-1368DR,6985,9788,15260,0.092,551
2020-01-11T04:52:19,42.805,6.029,CST-1368DR,6985,9789,15261,0.092,551
2020-01-11T04:55:21,42.805,6.029,CST-1368DR,6985,9792,15265,0.091,551
2020-01-11T04:58:23,42.805,6.029,CST-1368DR,6985,9791,15264,0.091,551
2020-01-11T05:01:25,42.805,6.029,CST-1368DR,6985,9792,15265,0.091,551
2020-01-11T05:04:26,42.805,6.029,CST-1368DR,6985,9792,15265,0.091,551
2020-01-11T05:07:28,42.805,6.029,CST-1368DR,6985,9787,15258,0.093,551
2020-01-11T05:10:30,42.805,6.029,CST-1368DR,6985,9787,15257,0.093,551
2020-01-11T05:13:31,42.805,6.029,CST-1368DR,6985,9791,15263,0.091,551
2020-01-11T05:16:33,42.805,6.029,CST-1368DR,6985,9792,15265,0.091,551
2020-01-11T05:19:35,42.805,6.029,CST-1368DR,6985,9792,15265,0.091,551
2020-01-11T05:22:36,42.805,6.029,CST-1368DR,6985,9791,15264,0.091,551
2020-01-11T05:25:38,42.805,6.029,CST-1368DR,6985,9791,15264,0.091,551
2020-01-11T05:28:40,42.805,6.029,CST-1368DR,6985,9790,15262,0.092,551
2020-01-11T05:31:41,42.805,6.029,CST-1368DR,6985,9791,15264,0.091,551
2020-01-11T05:34:43,42.805,6.029,CST-1368DR,6985,9791,15263,0.091,551
2020-01-11T05:37:45,42.805,6.029,CST-1368DR,6985,9790,15262,0.092,551
2020-01-11T05:40:46,42.805,6.029,CST-1368DR,6985,9789,15260,0.092,551
2020-01-11T05:43:48,42.805,6.029,CST-1368DR,6985,9791,15263,0.091,551
2020-01-11T05:46:50,42.805,6.029,CST-1368DR,6985,9790,15262,0.092,551
2020-01-11T05:49:51,42.805,6.029,CST-1368DR,6985,9791,15264,0.091,551
2020-01-11T05:52:53,42.805,6.029,CST-1368DR,6985,9791,15264,0.091,551
2020-01-11T05:55:55,42.805,6.029,CST-1368DR,6985,9788,15260,0.092,551
2020-01-11T05:58:56,42.805,6.029,CST-1368DR,6985,9790,15262,0.092,551
2020-01-11T06:01:58,42.805,6.029,CST-1368DR,6985,9789,15260,0.092,551
2020-01-11T06:05:00,42.805,6.029,CST-1368DR,6985,9791,15264,0.091,551
2020-01-11T06:08:01,42.805,6.029,CST-1368DR,6985,9790,15262,0.092,551
2020-01-11T06:11:03,42.805,6.029,CST-1368DR,6985,9791,15263,0.091,551
2020-01-11T06:14:05,42.805,6.029,CST-1368DR,6985,9792,15265,0.091,551
2020-01-11T06:17:07,42.805,6.029,CST-1368DR,6985,9791,15264,0.091,551
2020-01-11T06:20:08,42.805,6.029,CST-1368DR,6985,9790,15261,0.092,551
2020-01-11T06:23:10,42.805,6.029,CST-1368DR,6985,9792,15265,0.091,551
2020-01-11T06:26:12,42.805,6.029,CST-1368DR,6985,9789,15261,0.092,551
2020-01-11T06:29:13,42.805,6.029,CST-1368DR,6985,9791,15263,0.091,551
2020-01-11T06:32:15,42.805,6.029,CST-1368DR,6984,9790,15264,0.091,551
2020-01-11T06:35:17,42.805,6.029,CST-1368DR,6985,9787,15258,0.093,550
2020-01-11T06:38:18,42.805,6.029,CST-1368DR,6985,9790,15261,0.092,551
2020-01-11T06:41:20,42.805,6.029,CST-1368DR,6984,9789,15263,0.091,551
2020-01-11T06:44:22,42.805,6.029,CST-1368DR,6984,9790,15264,0.091,551
2020-01-11T06:47:23,42.805,6.029,CST-1368DR,6985,9789,15261,0.092,551
2020-01-11T06:50:25,42.805,6.029,CST-1368DR,6985,9789,15260,0.092,551
2020-01-11T06:53:27,42.805,6.029,CST-1368DR,6984,9788,15261,0.092,551
2020-01-11T06:56:28,42.805,6.029,CST-1368DR,6984,9791,15265,0.091,551
2020-01-11T06:59:30,42.805,6.029,CST-1368DR,6984,9787,15260,0.092,551
2020-01-11T07:02:32,42.805,6.029,CST-1368DR,6984,9790,15264,0.091,551
2020-01-11T07:05:33,42.805,6.029,CST-1368DR,6984,9791,15266,0.091,551
2020-01-11T07:08:35,42.805,6.029,CST-1368DR,6984,9791,15265,0.091,550
2020-01-11T07:11:37,42.805,6.029,CST-1368DR,6984,9790,15264,0.091,551
2020-01-11T07:14:39,42.805,6.029,CST-1368DR,6984,9791,15265,0.091,551
2020-01-11T07:17:40,42.805,6.029,CST-1368DR,6984,9788,15261,0.092,551
2020-01-11T07:20:42,42.805,6.029,CST-1368DR,6984,9787,15260,0.092,551
2020-01-11T07:23:44,42.805,6.029,CST-1368DR,6984,9789,15263,0.091,551
2020-01-11T07:26:46,42.805,6.029,CST-1368DR,6984,9786,15257,0.093,551
2020-01-11T07:29:47,42.805,6.029,CST-1368DR,6984,9790,15264,0.091,551
2020-01-11T07:32:49,42.805,6.029,CST-1368DR,6984,9790,15264,0.091,551
2020-01-11T07:35:51,42.805,6.029,CST-1368DR,6984,9790,15264,0.091,551
2020-01-11T07:38:52,42.805,6.029,CST-1368DR,6984,9784,15255,0.094,551
2020-01-11T07:41:54,42.805,6.029,CST-1368DR,6984,9790,15264,0.091,551
2020-01-11T07:44:56,42.805,6.029,CST-1368DR,6984,9788,15262,0.092,551
2020-01-11T07:47:57,42.805,6.029,CST-1368DR,6984,9789,15262,0.092,551
2020-01-11T07:50:59,42.805,6.029,CST-1368DR,6984,9789,15263,0.091,551
2020-01-11T07:54:00,42.805,6.029,CST-1368DR,6984,9789,15263,0.091,550
2020-01-11T07:57:02,42.805,6.029,CST-1368DR,6984,9788,15260,0.092,551
2020-01-11T08:00:04,42.805,6.029,CST-1368DR,6984,9787,15260,0.092,551
2020-01-11T08:03:05,42.805,6.029,CST-1368DR,6984,9788,15261,0.092,551
2020-01-11T08:06:07,42.805,6.029,CST-1368DR,6984,9789,15263,0.091,551
2020-01-11T08:09:09,42.805,6.029,CST-1368DR,6984,9788,15261,0.092,551
2020-01-11T08:12:10,42.805,6.029,CST-1368DR,6984,9789,15263,0.091,551
2020-01-11T08:15:12,42.805,6.029,CST-1368DR,6984,9789,15263,0.091,551
2020-01-11T08:18:14,42.805,6.029,CST-1368DR,6984,9785,15256,0.093,551
2020-01-11T08:21:15,42.805,6.029,CST-1368DR,6984,9789,15263,0.091,551
2020-01-11T08:24:17,42.805,6.029,CST-1368DR,6984,9791,15266,0.091,551
2020-01-11T08:27:19,42.805,6.029,CST-1368DR,6984,9791,15266,0.091,551
2020-01-11T08:30:21,42.805,6.029,CST-1368DR,6984,9788,15260,0.092,551
2020-01-11T08:33:23,42.805,6.029,CST-1368DR,6984,9790,15264,0.091,551
2020-01-11T08:36:24,42.805,6.029,CST-1368DR,6984,9792,15267,0.090,551
2020-01-11T08:39:26,42.805,6.029,CST-1368DR,6984,9789,15263,0.091,551
2020-01-11T08:42:28,42.805,6.029,CST-1368DR,6984,9789,15262,0.092,551
2020-01-11T08:45:29,42.805,6.029,CST-1368DR,6984,9790,15264,0.091,551
2020-01-11T08:48:31,42.805,6.029,CST-1368DR,6984,9790,15264,0.091,551
2020-01-11T08:51:33,42.805,6.029,CST-1368DR,6984,9787,15259,0.093,551
2020-01-11T08:54:34,42.805,6.029,CST-1368DR,6984,9791,15265,0.091,551
2020-01-11T08:57:36,42.805,6.029,CST-1368DR,6984,9791,15266,0.091,551
2020-01-11T09:00:38,42.805,6.029,CST-1368DR,6984,9790,15264,0.091,551
2020-01-11T09:03:39,42.805,6.029,CST-1368DR,6984,9791,15265,0.091,551
2020-01-11T09:06:41,42.805,6.029,CST-1368DR,6984,9790,15264,0.091,551
2020-01-11T09:09:43,42.805,6.029,CST-1368DR,6984,9791,15265,0.091,551
2020-01-11T09:12:45,42.805,6.029,CST-1368DR,6984,9792,15267,0.090,551
2020-01-11T09:15:46,42.805,6.029,CST-1368DR,6984,9791,15265,0.091,551
2020-01-11T09:18:48,42.805,6.029,CST-1368DR,6984,9790,15264,0.091,551
2020-01-11T09:21:50,42.805,6.029,CST-1368DR,6984,9791,15265,0.091,551
2020-01-11T09:24:51,42.805,6.029,CST-1368DR,6984,9791,15265,0.091,551
2020-01-11T09:27:53,42.805,6.029,CST-1368DR,6984,9790,15264,0.091,551
2020-01-11T09:30:55,42.805,6.029,CST-1368DR,6984,9791,15265,0.091,551
2020-01-11T09:33:57,42.805,6.029,CST-1368DR,6984,9790,15264,0.091,551
2020-01-11T09:36:58,42.805,6.029,CST-1368DR,6984,9791,15266,0.091,551
2020-01-11T09:40:00,42.805,6.029,CST-1368DR,6984,9790,15264,0.091,551
2020-01-11T09:43:02,42.805,6.029,CST-1368DR,6984,9791,15266,0.091,551
2020-01-11T09:46:03,42.805,6.029,CST-1368DR,6984,9790,15264,0.091,551
2020-01-11T09:49:05,42.805,6.029,CST-1368DR,6984,9791,15266,0.091,551
2020-01-11T09:52:07,42.805,6.029,CST-1368DR,6984,9791,15266,0.091,551
2020-01-11T09:55:08,42.805,6.029,CST-1368DR,6984,9788,15260,0.092,551
2020-01-11T09:58:10,42.805,6.029,CST-1368DR,6984,9789,15263,0.091,551
2020-01-11T10:01:12,42.805,6.029,CST-1368DR,6984,9791,15265,0.091,550
2020-01-11T10:04:13,42.805,6.029,CST-1368DR,6984,9790,15264,0.091,551
2020-01-11T10:07:15,42.805,6.029,CST-1368DR,6984,9791,15265,0.091,551
2020-01-11T10:10:17,42.805,6.029,CST-1368DR,6984,9790,15264,0.091,551
2020-01-11T10:13:18,42.805,6.029,CST-1368DR,6984,9791,15266,0.091,551
2020-01-11T10:16:20,42.805,6.029,CST-1368DR,6984,9789,15262,0.092,551
2020-01-11T10:19:22,42.805,6.029,CST-1368DR,6984,9791,15265,0.091,551
2020-01-11T10:22:23,42.805,6.029,CST-1368DR,6984,9791,15266,0.091,551
2020-01-11T10:25:25,42.805,6.029,CST-1368DR,6983,9788,15264,0.091,551
2020-01-11T10:28:27,42.805,6.029,CST-1368DR,6984,9789,15263,0.091,551
2020-01-11T10:31:28,42.805,6.029,CST-1368DR,6983,9791,15267,0.090,551
2020-01-11T10:34:30,42.805,6.029,CST-1368DR,6984,9791,15265,0.091,551
2020-01-11T10:37:32,42.805,6.029,CST-1368DR,6984,9790,15264,0.091,551
2020-01-11T10:40:33,42.805,6.029,CST-1368DR,6984,9790,15264,0.091,551
2020-01-11T10:43:35,42.805,6.029,CST-1368DR,6984,9790,15264,0.091,551
2020-01-11T10:46:37,42.805,6.029,CST-1368DR,6983,9790,15266,0.091,551
2020-01-11T10:49:38,42.805,6.029,CST-1368DR,6984,9791,15266,0.091,550
2020-01-11T10:52:40,42.805,6.029,CST-1368DR,6983,9789,15264,0.091,551
2020-01-11T10:55:42,42.805,6.029,CST-1368DR,6983,9790,15266,0.091,551
2020-01-11T10:58:43,42.805,6.029,CST-1368DR,6983,9790,15266,0.091,551
2020-01-11T11:01:45,42.805,6.029,CST-1368DR,6983,9791,15268,0.090,550
2020-01-11T11:04:47,42.805,6.029,CST-1368DR,6983,9790,15266,0.091,551
2020-01-11T11:07:48,42.805,6.029,CST-1368DR,6983,9789,15264,0.091,551
2020-01-11T11:10:50,42.805,6.029,CST-1368DR,6983,9785,15258,0.093,551
2020-01-11T11:13:52,42.805,6.029,CST-1368DR,6983,9787,15262,0.092,551
2020-01-11T11:16:54,42.805,6.029,CST-1368DR,6983,9789,15264,0.091,551
2020-01-11T11:19:55,42.805,6.029,CST-1368DR,6983,9790,15266,0.091,551
2020-01-11T11:22:57,42.805,6.029,CST-1368DR,6983,9789,15264,0.091,551
2020-01-11T11:25:58,42.805,6.029,CST-1368DR,6983,9789,15265,0.091,551
2020-01-11T11:29:00,42.805,6.029,CST-1368DR,6983,9790,15266,0.091,551
2020-01-11T11:32:02,42.805,6.029,CST-1368DR,6983,9789,15264,0.091,551
2020-01-11T11:35:03,42.805,6.029,CST-1368DR,6983,9789,15265,0.091,551
2020-01-11T11:38:05,42.805,6.029,CST-1368DR,6983,9790,15266,0.091,551
2020-01-11T11:41:07,42.805,6.029,CST-1368DR,6983,9789,15264,0.091,551
2020-01-11T11:44:08,42.805,6.029,CST-1368DR,6983,9790,15266,0.091,551
2020-01-11T11:47:10,42.805,6.029,CST-1368DR,6983,9788,15263,0.091,551
2020-01-11T11:50:12,42.805,6.029,CST-1368DR,6983,9787,15261,0.092,551
2020-01-11T11:53:13,42.805,6.029,CST-1368DR,6983,9790,15266,0.091,551
2020-01-11T11:56:15,42.805,6.029,CST-1368DR,6983,9788,15263,0.091,551
2020-01-11T11:59:17,42.805,6.029,CST-1368DR,6983,9787,15262,0.092,551
2020-01-11T12:02:18,42.805,6.029,CST-1368DR,6983,9790,15266,0.091,551
2020-01-11T12:05:20,42.805,6.029,CST-1368DR,6983,9789,15265,0.091,551
2020-01-11T12:08:22,42.805,6.029,CST-1368DR,6983,9789,15265,0.091,551
2020-01-11T12:11:23,42.805,6.029,CST-1368DR,6983,9790,15266,0.091,551
2020-01-11T12:14:25,42.805,6.029,CST-1368DR,6983,9789,15265,0.091,551
2020-01-11T12:17:27,42.805,6.029,CST-1368DR,6983,9789,15265,0.091,551
2020-01-11T12:20:28,42.805,6.029,CST-1368DR,6983,9787,15262,0.092,551
2020-01-11T12:23:30,42.805,6.029,CST-1368DR,6983,9789,15265,0.091,551
2020-01-11T12:26:32,42.805,6.029,CST-1368DR,6983,9790,15266,0.091,551
2020-01-11T12:29:33,42.805,6.029,CST-1368DR,6983,9789,15265,0.091,551
2020-01-11T12:32:35,42.805,6.029,CST-1368DR,6983,9787,15262,0.092,551
2020-01-11T12:35:37,42.805,6.029,CST-1368DR,6983,9790,15266,0.091,551
2020-01-11T12:38:38,42.805,6.029,CST-1368DR,6983,9790,15266,0.091,551
2020-01-11T12:41:40,42.805,6.029,CST-1368DR,6983,9788,15264,0.091,551
2020-01-11T12:44:41,42.805,6.029,CST-1368DR,6983,9789,15264,0.091,550
2020-01-11T12:47:43,42.805,6.029,CST-1368DR,6983,9790,15266,0.091,551
2020-01-11T12:50:45,42.805,6.029,CST-1368DR,6983,9788,15262,0.092,551
2020-01-11T12:53:46,42.805,6.029,CST-1368DR,6983,9789,15264,0.091,551
2020-01-11T12:56:48,42.805,6.029,CST-1368DR,6983,9786,15260,0.092,551
2020-01-11T12:59:50,42.805,6.029,CST-1368DR,6983,9789,15265,0.091,550
2020-01-11T13:02:51,42.805,6.029,CST-1368DR,6983,9790,15266,0.091,550
2020-01-11T13:05:53,42.805,6.029,CST-1368DR,6983,9788,15263,0.091,551
2020-01-11T13:08:55,42.805,6.029,CST-1368DR,6983,9788,15263,0.091,551
2020-01-11T13:11:56,42.805,6.029,CST-1368DR,6983,9789,15265,0.091,551
2020-01-11T13:14:58,42.805,6.029,CST-1368DR,6983,9789,15265,0.091,551
2020-01-11T13:17:59,42.805,6.029,CST-1368DR,6983,9789,15265,0.091,551
2020-01-11T13:21:01,42.805,6.029,CST-1368DR,6983,9788,15262,0.092,551
2020-01-11T13:24:03,42.805,6.029,CST-1368DR,6983,9782,15253,0.094,550
2020-01-11T13:27:04,42.805,6.029,CST-1368DR,6983,9788,15263,0.091,551
2020-01-11T13:30:06,42.805,6.029,CST-1368DR,6983,9788,15264,0.091,551
2020-01-11T13:33:08,42.805,6.029,CST-1368DR,6983,9788,15263,0.091,551
2020-01-11T13:36:09,42.805,6.029,CST-1368DR,6983,9790,15266,0.091,550
2020-01-11T13:39:11,42.805,6.029,CST-1368DR,6983,9788,15264,0.091,551
2020-01-11T13:42:13,42.805,6.029,CST-1368DR,6983,9782,15254,0.094,551
2020-01-11T13:45:14,42.805,6.029,CST-1368DR,6983,9789,15265,0.091,551
2020-01-11T13:48:16,42.805,6.029,CST-1368DR,6983,9785,15258,0.093,551
2020-01-11T13:51:18,42.805,6.029,CST-1368DR,6983,9784,15257,0.093,551
2020-01-11T13:54:19,42.805,6.029,CST-1368DR,6983,9788,15264,0.091,551
2020-01-11T13:57:21,42.805,6.029,CST-1368DR,6983,9789,15265,0.091,550
2020-01-11T14:00:22,42.805,6.029,CST-1368DR,6983,9788,15263,0.091,551
2020-01-11T14:03:24,42.805,6.029,CST-1368DR,6983,9789,15264,0.091,551
2020-01-11T14:06:26,42.805,6.029,CST-1368DR,6983,9786,15260,0.092,551
2020-01-11T14:09:27,42.805,6.029,CST-1368DR,6983,9786,15260,0.092,551
2020-01-11T14:12:29,42.805,6.029,CST-1368DR,6983,9789,15264,0.091,551
2020-01-11T14:15:31,42.805,6.029,CST-1368DR,6983,9788,15262,0.092,551
2020-01-11T14:18:32,42.805,6.029,CST-1368DR,6982,9789,15266,0.091,551
2020-01-11T14:21:34,42.805,6.029,CST-1368DR,6982,9787,15263,0.091,551
2020-01-11T14:24:36,42.805,6.029,CST-1368DR,6983,9786,15260,0.092,551
2020-01-11T14:27:37,42.805,6.029,CST-1368DR,6983,9789,15264,0.091,550
2020-01-11T14:30:39,42.805,6.029,CST-1368DR,6983,9788,15264,0.091,550
2020-01-11T14:33:40,42.805,6.029,CST-1368DR,6983,9780,15250,0.095,551
2020-01-11T14:36:42,42.805,6.029,CST-1368DR,6983,9788,15263,0.091,551
2020-01-11T14:39:44,42.805,6.029,CST-1368DR,6983,9786,15260,0.092,551
2020-01-11T14:42:45,42.805,6.029,CST-1368DR,6982,9784,15259,0.093,551
2020-01-11T14:45:47,42.805,6.029,CST-1368DR,6983,9788,15262,0.092,550
2020-01-11T14:48:49,42.805,6.029,CST-1368DR,6982,9787,15264,0.091,551
2020-01-11T14:51:50,42.805,6.029,CST-1368DR,6982,9788,15266,0.091,551
2020-01-11T14:54:52,42.805,6.029,CST-1368DR,6982,9789,15267,0.090,551
2020-01-11T14:57:54,42.805,6.029,CST-1368DR,6982,9789,15266,0.091,551
2020-01-11T15:00:55,42.805,6.029,CST-1368DR,6982,9789,15266,0.091,551
2020-01-11T15:03:57,42.805,6.029,CST-1368DR,6982,9786,15263,0.091,551
2020-01-11T15:06:59,42.805,6.029,CST-1368DR,6982,9789,15266,0.091,551
2020-01-11T15:10:00,42.805,6.029,CST-1368DR,6982,9787,15263,0.091,550
2020-01-11T15:13:02,42.805,6.029,CST-1368DR,6982,9788,15266,0.091,551
2020-01-11T15:16:04,42.805,6.029,CST-1368DR,6982,9789,15266,0.091,551
2020-01-11T15:19:05,42.805,6.029,CST-1368DR,6982,9788,15265,0.091,551
2020-01-11T15:22:07,42.805,6.029,CST-1368DR,6982,9787,15264,0.091,551
2020-01-11T15:25:08,42.805,6.029,CST-1368DR,6982,9788,15266,0.091,551
2020-01-11T15:28:10,42.805,6.029,CST-1368DR,6982,9789,15266,0.091,551
2020-01-11T15:31:12,42.805,6.029,CST-1368DR,6982,9789,15267,0.090,551
2020-01-11T15:34:14,42.805,6.029,CST-1368DR,6982,9789,15266,0.091,551
2020-01-11T15:37:15,42.805,6.029,CST-1368DR,6982,9788,15266,0.091,551
2020-01-11T15:40:17,42.805,6.029,CST-1368DR,6982,9787,15264,0.091,551
2020-01-11T15:43:19,42.805,6.029,CST-1368DR,6982,9788,15264,0.091,551
2020-01-11T15:46:21,42.805,6.029,CST-1368DR,6982,9787,15264,0.091,551
2020-01-11T15:49:22,42.805,6.029,CST-1368DR,6982,9786,15263,0.091,551
2020-01-11T15:52:24,42.805,6.029,CST-1368DR,6982,9787,15264,0.091,550
2020-01-11T15:55:25,42.805,6.029,CST-1368DR,6982,9787,15264,0.091,551
2020-01-11T15:58:27,42.805,6.029,CST-1368DR,6982,9788,15266,0.091,551
2020-01-11T16:01:29,42.805,6.029,CST-1368DR,6982,9788,15265,0.091,551
2020-01-11T16:04:30,42.805,6.029,CST-1368DR,6982,9788,15264,0.091,551
2020-01-11T16:07:32,42.805,6.029,CST-1368DR,6982,9788,15265,0.091,551
2020-01-11T16:10:34,42.805,6.029,CST-1368DR,6982,9788,15266,0.091,551
2020-01-11T16:13:35,42.805,6.029,CST-1368DR,6982,9787,15264,0.091,551
2020-01-11T16:16:37,42.805,6.029,CST-1368DR,6982,9787,15264,0.091,551
2020-01-11T16:19:39,42.805,6.029,CST-1368DR,6982,9785,15260,0.092,551
2020-01-11T16:22:40,42.805,6.029,CST-1368DR,6982,9787,15264,0.091,550
2020-01-11T16:25:42,42.805,6.029,CST-1368DR,6982,9788,15264,0.091,551
2020-01-11T16:28:44,42.805,6.029,CST-1368DR,6982,9788,15264,0.091,550
2020-01-11T16:31:45,42.805,6.029,CST-1368DR,6982,9788,15265,0.091,551
2020-01-11T16:34:47,42.805,6.029,CST-1368DR,6982,9786,15263,0.091,551
2020-01-11T16:37:49,42.805,6.029,CST-1368DR,6982,9788,15265,0.091,551
2020-01-11T16:40:50,42.805,6.029,CST-1368DR,6982,9788,15266,0.091,551
2020-01-11T16:43:52,42.805,6.029,CST-1368DR,6982,9788,15265,0.091,551
2020-01-11T16:46:53,42.805,6.029,CST-1368DR,6982,9787,15264,0.091,551
2020-01-11T16:49:55,42.805,6.029,CST-1368DR,6982,9782,15256,0.093,551
2020-01-11T16:52:57,42.805,6.029,CST-1368DR,6982,9785,15260,0.092,551